Regional Weather Roundup
Issued by NWS Cleveland, OH

Home | Current Version | Previous Version | Text Only | Print | Product List | Glossary Off
Versions: 1 2 3 4 5 6 7 8 9 10 11 12 13 14 15 16 17 18 19 20 21 22 23 24 25 26 27 28 29 30 31 32 33 34 35 36 37 38 39 40 41 42 43 44 45 46 47 48 49 50

000
ASUS41 KCLE 230510
RWRCLE
OHIO REGIONAL WEATHER ROUNDUP
NATIONAL WEATHER SERVICE CLEVELAND, OH
100 AM EDT MON APR 23 2018

NOTE: "FAIR" INDICATES FEW OR NO CLOUDS BELOW 12,000 FEET WITH NO
SIGNIFICANT WEATHER AND/OR OBSTRUCTIONS TO VISIBILITY.

OHZ001>008-015>018-024>027-034-035-043-044-230600-
   NORTHWEST OHIO

CITY           SKY/WX    TMP DP  RH WIND       PRES   REMARKS
DEFIANCE       FAIR      44  26  49 NE6       30.26S
FINDLAY        FAIR      46  24  42 NE8       30.23S
TOLEDO EXPRESS FAIR      46  29  51 E10       30.26F
TOLEDO EXEC    FAIR      44  31  60 NE7       30.28F
LIMA           FAIR      42  27  55 NE7       30.22F
$$

OHZ009>014-019>023-028>033-038-089-230600-
   NORTHEAST OHIO

CITY           SKY/WX    TMP DP  RH WIND       PRES   REMARKS
CLE-HOPKINS    FAIR      49  22  34 E6        30.28F
CLE-LAKEFRONT  FAIR      44  36  73 NE7       30.26F
CUY CO. ARPT   NOT AVBL
LORAIN-ELYRIA  FAIR      43  23  45 NE10      30.26F
ASHTABULA      FAIR      45  21  38 E5        30.30F
AKRON-CANTON   FAIR      48  25  40 E10       30.25F
WOOSTER        FAIR      44  29  55 E6        30.25S
MANSFIELD      FAIR      46  27  47 E9        30.23F
YOUNGSTOWN     FAIR      45  25  45 E8        30.27F
$$

OHZ042-051>053-060>062-070>072-077>081-230600-
  SOUTHWEST OHIO

CITY           SKY/WX    TMP DP  RH WIND       PRES   REMARKS
CINC-COVINGTON MOCLDY    56  31  38 E13       30.12F
CINC-LUNKEN    FAIR      47  41  80 CALM      30.14S
HAMILTON       FAIR      52  36  54 NE3       30.15F
DAYTON         MOCLDY    46  34  62 NE8       30.18F
WRIGHT-PAT AFB FAIR      49  33  55 NE9       30.16F
DAYTON GENERAL FAIR      55  29  36 NE13      30.14F
WILMINGTON     FAIR      52  34  50 NE8       30.15F
$$

OHZ036-037-039>041-045>050-054>059-063>069-073>076-082>088-230600-
  CENTRAL AND SOUTHEAST OHIO

CITY           SKY/WX    TMP DP  RH WIND       PRES   REMARKS
COLUMBUS       FAIR      52  30  43 NE6       30.19S
OSU AIRPORT    FAIR      49  31  49 NE8       30.19F
BOLTON FIELD   FAIR      49  34  54 NE7       30.19F
RICKENBACK AFB FAIR      47  32  56 NE5       30.18S
NEWARK         FAIR      50  32  50 CALM      30.20S
MARION         FAIR      42  27  55 NE6       30.23S
LANCASTER      FAIR      52  32  46 CALM      30.19S
ZANESVILLE     FAIR      56  29  35 NE3       30.20S
NEW PHILLY     FAIR      48  31  51 CALM      30.24S
$$




USA.gov is the U.S. government's official web portal to all federal, state and local government web resources and services.